Location: Newark
(42.9277°N, 71.8621°W)
Time: 05:59:05
(UTC+00:00)

Tiros 1 - All Passes

Search period start: 28 May 2020 00:00
Search period end: 07 June 2020 00:00
Orbit: 630 x 664 km, 48.4° (Epoch: 27 May)

Date Brightness Start Highest point End Pass type
(mag) Time Alt. Az. Time Alt. Az. Time Alt. Az.
28 May - 00:27:43 10° WNW 00:32:12 48° SW 00:36:37 10° SE daylight
28 May - 16:25:15 10° SSE 16:27:05 12° SE 16:28:53 10° ESE daylight
28 May - 18:03:54 10° SW 18:08:32 57° SSE 18:13:08 10° ENE daylight
28 May - 19:46:13 10° W 19:50:49 52° NNW 19:55:24 10° ENE daylight
28 May - 21:29:07 10° WNW 21:33:36 43° N 21:38:02 10° ENE daylight
28 May - 23:11:28 10° WNW 23:16:09 86° NNE 23:20:47 10° ESE daylight
29 May - 00:54:14 10° W 00:57:57 24° SW 01:01:37 10° S visible
29 May - 16:48:44 10° SSW 16:52:40 26° SE 16:56:36 10° E daylight
29 May - 18:29:48 10° WSW 18:34:32 82° NNW 18:39:15 10° ENE daylight
29 May - 20:12:38 10° WNW 20:17:08 43° N 20:21:35 10° ENE daylight
29 May - 21:55:18 10° WNW 21:59:53 54° NNE 22:04:27 10° E daylight
29 May - 23:37:36 10° WNW 23:42:08 52° SW 23:46:36 10° SE daylight
30 May - 01:22:43 10° WSW 01:23:30 10° SW 01:24:17 10° SW visible
30 May - 15:35:47 10° SE 15:37:03 11° SE 15:38:19 10° ESE daylight
30 May - 17:13:51 10° SW 17:18:28 53° SE 17:23:03 10° ENE daylight
30 May - 18:56:04 10° W 19:00:43 54° NNW 19:05:19 10° ENE daylight
30 May - 20:38:59 10° WNW 20:43:29 43° N 20:47:55 10° ENE daylight
30 May - 22:21:22 10° WNW 22:26:04 82° NNE 22:30:42 10° ESE daylight
31 May - 00:04:04 10° W 00:07:54 26° SW 00:11:42 10° SSE daylight
31 May - 15:58:46 10° SSW 16:02:36 25° SE 16:06:26 10° E daylight
31 May - 17:39:41 10° WSW 17:44:27 86° NNW 17:49:10 10° ENE daylight
31 May - 19:22:29 10° WNW 19:27:00 43° N 19:31:29 10° ENE daylight
31 May - 21:05:11 10° WNW 21:09:47 52° NNE 21:14:20 10° E daylight
31 May - 22:47:29 10° WNW 22:52:04 56° SSW 22:56:35 10° SE daylight
01 Jun - 00:31:55 10° WSW 00:33:28 12° SW 00:35:02 10° SSW daylight
01 Jun - 16:23:48 10° SW 16:28:22 49° SE 16:32:57 10° ENE daylight
01 Jun - 18:05:56 10° W 18:10:36 56° NNW 18:15:14 10° ENE daylight
01 Jun - 19:48:51 10° WNW 19:53:22 42° N 19:57:49 10° ENE daylight
01 Jun - 21:31:16 10° WNW 21:35:59 78° NNE 21:40:37 10° ESE daylight
01 Jun - 23:13:54 10° W 23:17:51 28° SW 23:21:47 10° SSE daylight
02 Jun - 15:08:50 10° S 15:12:33 23° SE 15:16:16 10° E daylight
02 Jun - 16:49:34 10° WSW 16:54:21 90° SSE 16:59:05 10° ENE daylight
02 Jun - 18:32:20 10° W 18:36:53 44° N 18:41:23 10° ENE daylight
02 Jun - 20:15:04 10° WNW 20:19:40 51° NNE 20:24:13 10° E daylight
02 Jun - 21:57:22 10° WNW 22:02:00 60° SSW 22:06:33 10° SE daylight
02 Jun - 23:41:24 10° WSW 23:43:27 13° SW 23:45:29 10° SSW daylight
03 Jun - 15:33:45 10° SW 15:38:18 46° SE 15:42:50 10° ENE daylight
03 Jun - 17:15:47 10° W 17:20:29 59° NNW 17:25:09 10° ENE daylight
03 Jun - 18:58:43 10° WNW 19:03:14 42° N 19:07:42 10° ENE daylight
03 Jun - 20:41:10 10° WNW 20:45:52 74° NNE 20:50:31 10° ESE daylight
03 Jun - 22:23:44 10° W 22:27:48 30° SW 22:31:50 10° SSE daylight
04 Jun - 14:18:55 10° S 14:22:31 21° SE 14:26:04 10° E daylight
04 Jun - 15:59:28 10° WSW 16:04:15 85° SSE 16:09:00 10° ENE daylight
04 Jun - 17:42:11 10° W 17:46:46 45° N 17:51:17 10° ENE daylight
04 Jun - 19:24:58 10° WNW 19:29:33 49° NNE 19:34:06 10° E daylight
04 Jun - 21:07:15 10° WNW 21:11:55 65° SSW 21:16:30 10° SE daylight
04 Jun - 22:51:00 10° W 22:53:25 14° SW 22:55:49 10° SSW daylight
05 Jun - 14:43:43 10° SW 14:48:13 43° SE 14:52:44 10° ENE daylight
05 Jun - 16:25:39 10° W 16:30:22 61° NNW 16:35:04 10° ENE daylight
05 Jun - 18:08:35 10° WNW 18:13:06 42° N 18:17:35 10° ENE daylight
05 Jun - 19:51:03 10° WNW 19:55:46 71° NNE 20:00:26 10° ESE daylight
05 Jun - 21:33:34 10° WNW 21:37:45 32° SW 21:41:53 10° SSE daylight
06 Jun - 13:29:02 10° S 13:32:27 20° SE 13:35:52 10° E daylight
06 Jun - 15:09:22 10° WSW 15:14:09 81° SSE 15:18:55 10° ENE daylight
06 Jun - 16:52:02 10° W 16:56:38 46° N 17:01:12 10° ENE daylight
06 Jun - 18:34:50 10° WNW 18:39:26 48° NNE 18:43:59 10° E daylight
06 Jun - 20:17:08 10° WNW 20:21:50 69° SSW 20:26:28 10° SE daylight
06 Jun - 22:00:40 10° W 22:03:23 15° SW 22:06:05 10° SSW daylight
